Tracking 29892 objects as of 21-Nov-2024
HD Live streaming from Space Station
objects crossing your sky now

ONEWEB-0253

Track ONEWEB-0253 now!
10-day predictions
ONEWEB-0253 is classified as:


NORAD ID: 48971
Int'l Code: 2021-061E
Perigee: 1,203.5 km
Apogee: 1,206.3 km
Inclination: 87.9 °
Period: 109.4 minutes
Semi major axis: 7575 km
RCS: Unknown
Launch date: July 1, 2021
Source: United Kingdom (UK)
Launch site: VOSTOCHNY COSMODROME (VOSTO)
Your satellite tracking list
Your tracking list is empty




NASA's NSSDC Master Catalog

Two Line Element Set (TLE):
1 48971U 21060E   24325.52363794  .00000030  00000-0  44538-4 0  9994
2 48971  87.9091 343.0679 0001870  84.6809 275.4535 13.16601210164102
Source of the keplerian elements: AFSPC